Lander, WY

8:25 PM MST on December 04, 2016 (GMT -0700)
South Pass

Weather History for KFWZ - May, 2013

Change the Weather History Date:

Tuesday, May 21, 2013

  Actual Average (KLND) Record (KLND)
Temperature  
Mean Temperature 43 °F 55 °F  
Max Temperature 53 °F 68 °F 85 °F (1964)
Min Temperature 33 °F 42 °F 27 °F (2001)
Degree Days  
Heating Degree Days 22 10  
Month to date heating degree days 280  
Since 1 July heating degree days 7534  
Cooling Degree Days 0 0  
Month to date cooling degree days 0  
Year to date cooling degree days 0  
Moisture  
Dew Point 34 °F    
Average Humidity 73    
Maximum Humidity 100    
Minimum Humidity 44    
Precipitation  
Precipitation 0.00 in 0.07 in 1.78 in (1904)
Month to date precipitation 1.52  
Year to date precipitation 5.54  
Snow  
Snow 0.00 in 0.10 in - ()
Month to date snowfall 4.4  
Since 1 July snowfall 90.9  
Snow Depth -    
Sea Level Pressure  
Sea Level Pressure 30.05 in    
Wind  
Wind Speed 6 mph (West)    
Max Wind Speed 12 mph    
Max Gust Speed 17 mph    
Visibility 10 miles    
Events      
T = Trace of Precipitation, MM = Missing Value Source: NWS Daily Summary

Daily Weather History Graph

Daily Weather History Graph

Search for Another Location

Airport or City:

Trip Planner

Search our weather history database for the weather conditions in past years. The results will help you decide how hot, cold, wet, or windy it might be!

Date:

Astronomy

May. 21, 2013 Rise Set
Actual Time 5:47 AM MDT 8:36 PM MDT
Civil Twilight 5:14 AM MDT 9:09 PM MDT
Nautical Twilight 4:32 AM MDT 9:51 PM MDT
Astronomical Twilight 3:44 AM MDT 10:39 PM MDT
Moon 4:49 PM MDT (5/21) 3:22 AM MDT (5/21)
Length of Visible Light 15h 55m
Length of Day
14h 49m
Waxing Gibbous, 84% of the Moon is Illuminated
May 21
Waxing Gibbous
May 24
Full
May 31
Last Quarter
Jun 8
New
Jun 16
First Quarter

Hourly Weather History & Observations

Time (MDT) Temp. Windchill Dew Point Humidity Pressure Visibility Wind Dir Wind Speed Gust Speed Precip Events Conditions
12:15 AM 35.6 °F 29.9 °F 33.8 °F 93% 30.15 in 10.0 mi North 6.9 mph - N/A   Overcast
12:35 AM 35.6 °F 31.7 °F 33.8 °F 93% 30.15 in 10.0 mi NNW 4.6 mph - N/A   Overcast
12:55 AM 35.6 °F 29.2 °F 33.8 °F 93% 30.14 in 10.0 mi North 8.1 mph - N/A   Overcast
1:15 AM 35.6 °F 28.0 °F 33.8 °F 93% 30.13 in 10.0 mi North 10.4 mph - N/A   Overcast
1:35 AM 33.8 °F 25.3 °F 32.0 °F 93% 30.12 in 10.0 mi North 11.5 mph - N/A   Mostly Cloudy
1:55 AM 33.8 °F 30.8 °F 32.0 °F 93% 30.12 in 10.0 mi North 3.5 mph - N/A   Scattered Clouds
2:15 AM 33.8 °F 26.4 °F 32.0 °F 93% 30.12 in 10.0 mi North 9.2 mph - N/A   Scattered Clouds
2:35 AM 33.8 °F 27.0 °F 32.0 °F 93% 30.11 in 10.0 mi North 8.1 mph - N/A   Mostly Cloudy
2:55 AM 33.8 °F 28.6 °F 32.0 °F 93% 30.11 in 10.0 mi NNW 5.8 mph - N/A   Overcast
3:15 AM 33.8 °F 30.8 °F 32.0 °F 93% 30.10 in 10.0 mi WSW 3.5 mph - N/A   Mostly Cloudy
3:35 AM 33.8 °F 29.6 °F 33.8 °F 100% 30.10 in 10.0 mi WSW 4.6 mph - N/A   Clear
3:55 AM 33.8 °F 29.6 °F 33.8 °F 100% 30.09 in 5.0 mi SW 4.6 mph - N/A   Scattered Clouds
4:15 AM 33.8 °F 28.6 °F 33.8 °F 100% 30.09 in 2.5 mi SW 5.8 mph - N/A   Mostly Cloudy
4:35 AM 35.6 °F 31.7 °F 33.8 °F 93% 30.10 in 10.0 mi West 4.6 mph - N/A   Scattered Clouds
4:55 AM 33.8 °F - 33.8 °F 100% 30.10 in 10.0 mi Calm Calm - N/A   Mostly Cloudy
5:15 AM 35.6 °F 32.8 °F 33.8 °F 93% 30.10 in 10.0 mi West 3.5 mph - N/A   Overcast
5:35 AM 35.6 °F - 33.8 °F 93% 30.10 in 10.0 mi Calm Calm - N/A   Overcast
5:55 AM 35.6 °F 32.8 °F 33.8 °F 93% 30.10 in 10.0 mi WNW 3.5 mph - N/A   Overcast
6:15 AM 35.6 °F - 33.8 °F 93% 30.10 in 10.0 mi Calm Calm - N/A   Overcast
6:35 AM 35.6 °F - 33.8 °F 93% 30.10 in 10.0 mi Calm Calm - N/A   Overcast
6:55 AM 35.6 °F - 33.8 °F 93% 30.10 in 10.0 mi Calm Calm - N/A   Overcast
7:15 AM 35.6 °F - 33.8 °F 93% 30.10 in 10.0 mi Calm Calm - N/A   Overcast
7:35 AM 37.4 °F - 32.0 °F 81% 30.10 in 10.0 mi Calm Calm - N/A   Overcast
7:55 AM 37.4 °F 34.9 °F 35.6 °F 93% 30.10 in 10.0 mi WSW 3.5 mph - N/A   Overcast
8:15 AM 37.4 °F 34.9 °F 35.6 °F 93% 30.09 in 10.0 mi SW 3.5 mph - N/A   Overcast
8:35 AM 37.4 °F 33.8 °F 35.6 °F 93% 30.10 in 10.0 mi SW 4.6 mph - N/A   Overcast
8:55 AM 37.4 °F 34.9 °F 35.6 °F 93% 30.10 in 10.0 mi SSW 3.5 mph - N/A   Overcast
9:15 AM 39.2 °F 35.0 °F 35.6 °F 87% 30.09 in 10.0 mi SSW 5.8 mph - N/A   Overcast
9:35 AM 41.0 °F 35.8 °F 35.6 °F 81% 30.09 in 10.0 mi SW 8.1 mph - N/A   Overcast
9:55 AM 39.2 °F 34.2 °F 35.6 °F 87% 30.09 in 10.0 mi SSW 6.9 mph - N/A   Overcast
10:15 AM 41.0 °F 37.1 °F 33.8 °F 76% 30.09 in 10.0 mi SW 5.8 mph - N/A   Overcast
10:35 AM 41.0 °F 37.1 °F 35.6 °F 81% 30.08 in 10.0 mi SW 5.8 mph - N/A   Overcast
10:55 AM 42.8 °F 40.1 °F 35.6 °F 76% 30.08 in 10.0 mi SW 4.6 mph - N/A   Overcast
11:15 AM 44.6 °F 41.4 °F 35.6 °F 71% 30.08 in 10.0 mi SW 5.8 mph - N/A   Overcast
11:35 AM 44.6 °F 41.4 °F 35.6 °F 71% 30.08 in 10.0 mi WSW 5.8 mph - N/A   Overcast
11:55 AM 42.8 °F 38.6 °F 33.8 °F 70% 30.08 in 10.0 mi SSW 6.9 mph - N/A   Overcast
12:15 PM 46.4 °F 42.9 °F 33.8 °F 62% 30.07 in 10.0 mi WSW 6.9 mph - N/A   Overcast
12:35 PM 44.6 °F 39.2 °F 35.6 °F 71% 30.07 in 10.0 mi WSW 10.4 mph - N/A   Overcast
12:55 PM 46.4 °F 41.5 °F 33.8 °F 62% 30.07 in 10.0 mi WSW 10.4 mph - N/A   Overcast
1:15 PM 48.2 °F - 33.8 °F 58% 30.06 in 10.0 mi WSW 10.4 mph - N/A   Overcast
1:35 PM 50.0 °F - 33.8 °F 54% 30.05 in 10.0 mi West 10.4 mph 17.3 mph N/A   Overcast
1:55 PM 50.0 °F - 33.8 °F 54% 30.04 in 10.0 mi WSW 8.1 mph - N/A   Overcast
2:15 PM 50.0 °F - 33.8 °F 54% 30.04 in 10.0 mi SW 8.1 mph 16.1 mph N/A   Overcast
2:35 PM 50.0 °F - 32.0 °F 50% 30.03 in 10.0 mi SW 9.2 mph - N/A   Overcast
2:55 PM 51.8 °F - 32.0 °F 47% 30.02 in 10.0 mi WSW 9.2 mph 17.3 mph N/A   Overcast
3:15 PM 51.8 °F - 32.0 °F 47% 30.02 in 10.0 mi SSW 5.8 mph - N/A   Overcast
3:35 PM 53.6 °F - 32.0 °F 44% 30.02 in 10.0 mi WSW 8.1 mph - N/A   Overcast
3:55 PM 50.0 °F - 32.0 °F 50% 30.01 in 10.0 mi WNW 9.2 mph - N/A   Overcast
4:15 PM 50.0 °F - 30.2 °F 47% 30.01 in 10.0 mi NNW 3.5 mph - N/A   Overcast
4:35 PM 50.0 °F - 35.6 °F 58% 30.00 in 10.0 mi NNE 8.1 mph - N/A   Overcast
4:55 PM 51.8 °F - 33.8 °F 50% 30.00 in 10.0 mi NE 5.8 mph - N/A   Overcast
5:15 PM 51.8 °F - 33.8 °F 50% 29.99 in 10.0 mi Calm Calm - N/A   Overcast
5:35 PM 53.6 °F - 35.6 °F 51% 29.99 in 10.0 mi NNW 6.9 mph - N/A   Overcast
5:55 PM 51.8 °F - 32.0 °F 47% 29.98 in 10.0 mi Calm Calm - N/A   Overcast
6:15 PM 53.6 °F - 32.0 °F 44% 29.98 in 10.0 mi WSW 8.1 mph - N/A   Overcast
6:35 PM 51.8 °F - 32.0 °F 47% 29.98 in 10.0 mi WSW 9.2 mph - N/A   Overcast
6:55 PM 51.8 °F - 32.0 °F 47% 29.98 in 10.0 mi West 9.2 mph - N/A   Overcast
7:15 PM 50.0 °F - 30.2 °F 47% 29.98 in 10.0 mi West 6.9 mph - N/A   Overcast
7:35 PM 51.8 °F - 32.0 °F 47% 29.98 in 10.0 mi West 6.9 mph - N/A   Overcast
7:55 PM 51.8 °F - 32.0 °F 47% 29.98 in 10.0 mi WSW 4.6 mph - N/A   Overcast
8:15 PM 50.0 °F - 32.0 °F 50% 29.98 in 10.0 mi WSW 5.8 mph - N/A   Overcast
8:35 PM 48.2 °F - 32.0 °F 54% 29.98 in 10.0 mi WSW 3.5 mph - N/A   Overcast
8:55 PM 48.2 °F - 32.0 °F 54% 29.98 in 10.0 mi Calm Calm - N/A   Overcast
9:15 PM 46.4 °F 43.5 °F 35.6 °F 66% 29.98 in 10.0 mi NNE 5.8 mph - N/A   Overcast
9:35 PM 44.6 °F 41.4 °F 35.6 °F 71% 29.98 in 10.0 mi North 5.8 mph - N/A   Overcast
9:55 PM 44.6 °F 41.4 °F 35.6 °F 71% 29.98 in 10.0 mi NNW 5.8 mph - N/A   Overcast
10:15 PM 44.6 °F 42.2 °F 33.8 °F 66% 29.98 in 10.0 mi North 4.6 mph - N/A   Overcast
10:35 PM 44.6 °F 41.4 °F 33.8 °F 66% 29.98 in 10.0 mi North 5.8 mph - N/A   Overcast
10:55 PM 44.6 °F 42.2 °F 33.8 °F 66% 29.98 in 10.0 mi North 4.6 mph - N/A   Overcast
11:15 PM 44.6 °F 43.1 °F 32.0 °F 61% 29.98 in 10.0 mi North 3.5 mph - N/A   Overcast
11:35 PM 42.8 °F 41.1 °F 33.8 °F 70% 29.97 in 10.0 mi NNW 3.5 mph - N/A   Overcast
11:55 PM 42.8 °F 41.1 °F 32.0 °F 66% 29.96 in 10.0 mi NNW 3.5 mph - N/A   Overcast